Location: Gwalchmai
(53.2500°N, 4.4167°W)
Time: 07:29:14
(UTC+00:00)

Daily predictions for brighter satellites

Satellite Brightness Start Highest point End
(mag) Time Altitude Azimuth Time Altitude Azimuth Time Altitude Azimuth
Cosmos 2228 Rocket 4.1 16:34:38 10° SSW 16:39:06 50° WNW 16:43:36 10° N
Cosmos 1908 Rocket 4.4 16:36:06 10° N 16:39:56 28° ENE 16:43:42 10° SE
Cosmos 1743 4.4 16:41:19 10° NNE 16:43:28 14° ENE 16:45:38 10° E
Cosmos 2279 Rocket 4.1 16:38:10 10° N 16:44:28 89° WSW 16:50:45 10° S
Lacrosse 5 rocket 1.7 16:41:49 10° SW 16:46:03 56° SE 16:50:03 10° ENE
SL-16 R/B 3.8 16:43:58 10° SE 16:47:20 16° E 16:50:42 10° ENE
H-2A R/B 3.6 16:46:06 10° N 16:49:45 31° WNW 16:53:24 10° SW
Cosmos 2344 4.4 16:41:52 10° WNW 16:49:55 49° NNE 17:00:29 10° E
Cosmos 1340 4.4 16:47:19 10° NNW 16:50:49 36° W 16:54:18 10° SSW
SL-4 R/B 2.2 16:47:18 10° WSW 16:50:55 61° S 16:54:51 10° E
Cosmos 1689 Rocket 2.3 16:49:00 10° NNE 16:52:00 52° E 16:54:57 10° S
Okean-O 3.6 16:48:55 10° ESE 16:52:36 26° ENE 16:56:18 10° N
Cosmos 2237 Rocket 2.8 16:49:43 10° S 16:55:01 41° ESE 17:00:20 10° NE
Meteor 2-6 Rocket 4.1 16:49:46 10° S 16:55:08 74° E 17:00:37 10° NNE
BREEZE-M R/B 3.9 16:48:20 10° WSW 16:55:33 59° S 16:59:10 10° ESE
SL-16 R/B 4.1 16:51:58 10° N 16:57:06 29° NW 17:02:15 10° WSW
YAOGAN 1 4.2 16:55:24 10° E 16:57:43 14° NE 17:00:03 10° NNE
USA 215 3.9 16:52:11 10° ENE 16:58:20 42° SE 17:04:28 10° SSW
Cosmos 2322 Rocket 3.7 16:53:45 10° W 16:58:36 29° NW 17:03:29 10° NNE
Cosmos 1812 3.0 16:56:08 10° SSE 16:59:49 46° E 17:03:34 10° NNE
Cosmos 1733 Rocket 3.1 16:56:25 10° N 17:00:50 89° E 17:05:15 10° S
Cosmos 2333 Rocket 2.3 16:55:06 10° SSW 17:00:52 85° WNW 17:06:42 10° NNE
Cosmos 1500 3.1 16:57:11 10° N 17:00:58 82° E 17:04:43 10° SSE
Aureole 1 Rocket 4.0 16:59:50 10° SE 17:01:54 17° E 17:03:35 12° ENE
Cosmos 1782 3.8 16:58:58 10° SSW 17:02:49 46° WNW 17:06:40 10° N
Cosmos 2219 Rocket 2.3 16:57:16 10° SSW 17:02:54 84° WNW 17:08:37 10° NNE
Cosmos 1943 Rocket 3.0 16:57:57 10° NNW 17:02:58 31° NE 17:07:54 10° ESE
SJ-7 4.4 16:59:49 10° SSE 17:03:59 82° ENE 17:08:06 10° NNW
Nadezhda 4 Rocket 4.2 17:02:19 10° SSE 17:08:27 55° E 17:14:34 10° NNE
SL-16 R/B 3.9 17:04:43 10° W 17:09:18 24° NNW 17:13:54 10° NNE
Cosmos 921 Rocket 3.3 17:05:20 10° NNW 17:09:27 44° ENE 17:13:36 10° SE
Radarsat Rocket 4.2 17:04:08 10° SSE 17:10:06 73° WSW 17:15:58 10° NNW
CZ-4 R/B 2.6 17:12:28 10° ESE 17:15:16 19° ENE 17:18:03 10° NNE
Cosmos 1315 Rocket 4.0 17:12:13 10° SW 17:16:05 43° WNW 17:20:01 10° N
CZ-4B R/B 2.6 17:14:50 10° N 17:18:12 44° WNW 17:21:31 10° SW
AQUARIUS 4.1 17:18:18 10° SSE 17:22:46 68° ENE 17:27:15 10° N
CSL-04 Rocket 4.5 17:18:44 10° ESE 17:23:07 28° ENE 17:27:35 10° N
NOSS 0 Rocket 4.0 17:18:24 10° SSW 17:24:37 76° ESE 17:30:39 11° NE
Lacrosse 4 Rocket 3.3 17:23:05 10° NNW 17:25:22 14° NNE 17:26:19 13° NE
Cosmos 1980 3.7 17:21:07 10° SSW 17:26:44 70° ESE 17:32:01 12° NE
BREEZE-M DEB (TANK) 4.1 17:21:41 10° WSW 17:26:52 32° S 17:29:40 10° ESE
Cosmos 1441 Rocket 3.2 17:24:33 10° N 17:28:20 53° ENE 17:32:01 10° SSE
Cosmos 1975 3.8 17:26:12 10° N 17:29:34 25° ENE 17:32:56 10° SE
Meteor 1-10 Rocket 4.5 17:24:08 10° SSW 17:29:41 72° WNW 17:35:23 10° N
Cosmos 2026 Rocket 4.4 17:24:26 10° SSE 17:29:56 38° E 17:35:29 10° NNE
NOSS 3-1 (C) 4.1 17:23:13 10° NW 17:29:58 52° NNE 17:37:52 10° ESE
SMAP 3.0 17:28:17 10° SSE 17:32:57 89° ENE 17:37:39 10° NNW
H-2A R/B 2.5 17:29:21 10° SSE 17:33:03 82° ENE 17:36:46 10° NNW
Cosmos 2251 Rocket 3.5 17:28:14 10° SSW 17:33:33 88° WNW 17:38:51 10° NNE
Cosmos 2297 3.7 17:27:59 10° NNW 17:33:45 88° ENE 17:39:26 10° SSE
Envisat 3.1 17:29:10 10° SE 17:34:07 55° ENE 17:39:05 10° N
Cosmos 1782 Rocket 3.6 17:30:57 10° N 17:35:14 51° ENE 17:39:27 10° SSE
USA 267 3.7 17:28:48 10° SE 17:35:17 64° SW 17:41:49 10° WNW
STARLINK-67 2.5 17:35:46 10° W 17:38:32 80° S 17:39:48 28° ESE
Genesis I 4.5 17:35:45 10° NW 17:39:29 43° SW 17:43:08 10° SSE
USA 229 DEB 4.0 17:33:30 10° NW 17:40:28 56° NNE 17:47:14 12° ESE
PSLV R/B 3.9 17:36:21 10° NNE 17:40:32 81° ESE 17:44:38 10° SSW
USA 229 4.0 17:33:37 10° NW 17:40:33 55° NNE 17:47:15 12° ESE
Cosmos 407 Rocket 4.1 17:37:59 10° SSE 17:42:41 35° ESE 17:45:31 21° NE
Exosat Rocket 3.5 17:37:50 10° SSW 17:42:55 87° WNW 17:47:39 13° NNE
Cosmos 1666 2.7 17:41:12 10° NNW 17:44:58 77° W 17:48:42 10° S
Meteor 1-27 Rocket 3.9 17:39:12 10° SSW 17:45:01 84° WNW 17:50:58 10° NNE
NOSS 3-1 (A) 4.2 17:39:01 10° NW 17:45:43 49° NNE 17:51:32 18° E
NOSS 3-4 (A) 4.1 17:39:49 10° WSW 17:45:48 50° NNW 17:50:44 17° NE
NOSS 3-4 (C) 4.1 17:39:55 10° WSW 17:45:54 50° NNW 17:50:50 17° NE
Cosmos 1862 Rocket 3.9 17:42:18 10° SSW 17:46:40 67° WNW 17:51:06 10° N
Okean 2 Rocket 3.7 17:42:47 10° N 17:46:54 34° ENE 17:51:00 10° SE
NOAA 12 4.0 17:42:33 10° SSE 17:47:50 80° ENE 17:53:08 10° NNW
STARLINK-46 2.3 17:46:44 10° W 17:49:24 86° S 17:49:59 50° E
Cosmos 1703 Rocket 3.7 17:45:55 10° S 17:50:18 56° E 17:54:16 13° NNE
Sich 1 Rocket 3.6 17:46:18 10° N 17:50:40 55° ENE 17:54:59 10° SSE
COSMOS 2428 3.6 17:48:32 10° WSW 17:53:58 45° NW 17:59:05 12° NNE
FALCON 9 DEB 3.8 17:55:41 10° SW 17:59:01 43° SSE 17:59:57 34° ESE
Meteor 2-9 Rocket 4.4 17:55:10 10° N 18:00:55 52° ENE 18:06:33 10° SE
COSMOS 2455 4.4 18:00:19 10° WNW 18:05:08 24° NNW 18:08:25 16° NNE
Cosmos 1627 Rocket 4.4 17:59:08 10° S 18:05:10 69° E 18:11:19 10° NNE
Okean O Rocket 4.4 18:02:16 10° SW 18:05:29 20° W 18:08:44 10° NW
RESURS DK-1 4.0 18:02:15 10° WSW 18:05:53 29° NW 18:08:39 15° NNE
YAOGAN 6 2.4 18:03:44 10° SSE 18:07:16 69° ENE 18:10:54 10° N
Cosmos 2195 Rocket 4.4 18:01:13 10° S 18:07:26 77° E 18:13:47 10° NNE
NOAA 11 4.4 18:04:06 10° SE 18:09:16 46° ENE 18:14:30 10° N
SeaSat 1 3.6 18:12:56 25° NNE 18:12:56 25° NNE 18:16:43 10° NNW
Cosmos 2242 Rocket 4.2 18:09:22 10° SSW 18:13:52 58° WNW 18:18:25 10° N
Meteor 1-18 Rocket 4.3 18:08:54 10° S 18:14:26 56° E 18:18:30 18° NNE
Cosmos 2360 Rocket 4.1 18:10:28 10° WNW 18:14:40 21° NNW 18:18:37 11° NNE
Cosmos 1867 4.0 18:10:09 10° NW 18:15:35 65° SW 18:20:57 10° SSE
Ariane Rocket 3.7 18:18:02 33° NE 18:18:02 33° NE 18:21:55 10° N
CZ-4 R/B 4.3 18:13:17 10° SSE 18:17:26 78° ENE 18:21:38 10° NNW
Cosmos 1655 Rocket 4.2 18:13:14 10° SSE 18:19:07 44° E 18:23:34 17° NNE
Cosmos 1092 Rocket 4.1 18:13:05 10° SSW 18:19:23 79° WNW 18:25:40 10° N
Cosmos 1743 2.9 18:15:54 10° NNW 18:19:46 74° W 18:23:39 10° S
Cosmos 2369 Rocket 2.1 18:15:32 10° NNW 18:21:10 69° NE 18:25:39 17° SE
Cosmos 1980 Rocket 4.2 18:20:46 10° NNW 18:23:22 13° N 18:24:45 12° NNE
Okean 1-7 3.0 18:19:55 10° SSW 18:24:17 83° WNW 18:27:21 20° N
ATLAS 2AS CENTAUR R/B 3.7 18:16:43 10° W 18:24:19 43° NNW 18:28:35 24° NE
COSMO-SKYMED 1 2.5 18:24:20 48° NE 18:25:12 59° ESE 18:29:29 10° S
Lacrosse 5 rocket 1.5 18:21:08 10° W 18:25:17 57° NNW 18:25:54 50° NNE
Cosmos 1656 Rocket 4.0 18:20:32 10° NNW 18:25:41 41° NE 18:26:10 40° ENE
Cosmos 1763 Rocket 4.0 18:21:11 10° NNW 18:25:34 37° NE 18:25:34 37° NE
Cosmos 1300 Rocket 3.5 18:23:43 10° N 18:27:54 57° ENE 18:27:54 57° ENE
Okean-O 3.6 18:24:34 10° S 18:28:53 49° W 18:33:12 10° NNW
STARLINK-60 3.3 18:26:05 10° WSW 18:29:13 63° SSW 18:29:13 63° SSW
STARLINK-52 3.6 18:26:11 10° SW 18:29:24 52° S 18:29:24 52° S
SL-4 R/B 2.1 18:26:37 10° W 18:30:25 65° S 18:30:59 56° SE
SL-16 R/B 2.1 18:24:52 10° SSW 18:30:33 78° ESE 18:33:05 35° NE
Lacrosse 5 3.8 18:28:00 10° SSE 18:29:45 15° SE 18:29:45 15° SE
YAOGAN 1 2.4 18:28:50 10° SSE 18:33:09 81° ENE 18:37:31 10° NNW
FengYun 1-2 T 4.4 18:28:21 10° S 18:33:49 72° WSW 18:39:22 10° NNW
Okean 1 3.2 18:32:09 10° S 18:36:08 86° W 18:36:52 58° N
STARLINK-29 3.7 18:34:14 10° WSW 18:37:15 53° SSW 18:37:15 53° SSW
Cosmos 1190 Rocket 3.8 18:33:50 10° SSW 18:39:02 80° ESE 18:40:41 45° NE
Cosmos 2237 Rocket 3.0 18:33:34 10° WSW 18:39:04 47° NW 18:42:36 21° NNE
Cosmos 676 Rocket 4.0 18:36:35 10° S 18:41:36 55° ESE 18:41:40 55° ESE
USA 215 3.2 18:39:08 40° ENE 18:41:49 90° W 18:48:23 10° WSW
Cosmos 2322 Rocket 4.3 18:41:45 10° NW 18:44:40 14° NNW 18:46:39 12° N
Aureole 1 Rocket 3.6 18:43:00 10° SW 18:45:56 37° NW 18:46:15 36° NW
Cosmos 2333 Rocket 3.9 18:41:11 10° W 18:45:59 26° NW 18:49:26 16° NNE
Cosmos 1943 Rocket 2.3 18:41:36 10° NW 18:47:15 73° WSW 18:52:50 10° SSE
Cosmos 2219 Rocket 3.9 18:43:05 10° W 18:47:42 25° NW 18:51:00 16° N
Cosmos 614 Rocket 4.0 18:43:16 10° SSW 18:48:21 76° WNW 18:50:06 42° NNE
Cosmos 1954 Rocket 4.0 18:43:20 10° S 18:48:10 58° ESE 18:48:10 58° ESE
S3M 3.9 18:43:01 10° N 18:49:17 89° WSW 18:55:26 10° S
SKYMED 3 4.5 18:48:43 65° N 18:49:20 85° WNW 18:53:41 10° SSW
CZ-4 R/B 1.9 18:46:12 10° S 18:50:00 54° W 18:53:47 10° NNW
SL-16 R/B 4.3 18:52:53 10° NW 18:55:36 13° N 18:56:55 12° N
Meteor 2-4 Rocket 3.7 18:51:38 10° S 18:57:05 60° ESE 18:57:05 60° ESE
Cosmos 2151 Rocket 3.9 18:53:51 10° NNW 18:57:25 57° NNW 18:57:25 57° NNW
Cosmos 1174 4.2 18:54:22 10° SW 18:58:33 63° W 18:58:33 63° W
Cosmos 2266 Rocket 4.0 18:53:06 10° S 18:59:21 58° E 18:59:28 58° E
Cosmos 1553 Rocket 4.5 18:54:09 10° NNW 19:00:25 62° W 19:06:44 10° S
CSL-04 Rocket 4.0 18:57:53 10° S 19:03:07 63° WSW 19:08:26 10° NNW
CZ-4C R/B 3.8 18:59:50 10° S 19:01:22 18° SSE 19:01:22 18° SSE
Lacrosse 4 Rocket 3.4 19:01:11 10° NNW 19:02:38 20° NNW 19:02:38 20° NNW
Cosmos 2344 4.2 18:56:35 10° NW 19:05:44 87° NE 19:13:44 26° SE
Meteor 1-19 Rocket 4.1 19:00:19 10° SSW 19:05:49 84° WNW 19:07:28 47° N
Cosmos 1975 4.2 19:02:26 10° NNW 19:06:10 38° W 19:09:53 10° SSW
Cosmos 1140 Rocket 3.5 19:07:30 10° SSW 19:12:38 72° WNW 19:13:01 69° NNW
SKYMED 2 4.2 19:12:59 51° NW 19:13:18 52° WNW 19:17:31 10° SW
Cosmos 468 Rocket 4.1 19:13:48 10° NNW 19:18:28 71° NW 19:18:28 71° NW
NOSS 3-1 (C) 4.2 19:14:05 10° NW 19:21:22 71° SW 19:25:29 33° SSE
Cosmos 407 Rocket 4.4 19:19:33 10° SW 19:24:35 46° NW 19:25:45 40° NNW
USA 229 DEB 4.2 19:24:37 10° NW 19:31:41 61° SW 19:34:44 36° S
USA 229 4.2 19:24:43 10° NW 19:31:46 61° SW 19:34:46 37° S
Cosmos 2315 Rocket 3.9 19:27:43 10° NNW 19:34:03 85° WNW 19:34:03 85° WNW
H-2A R/B 4.4 19:41:18 11° N 19:41:18 11° N 19:41:34 10° N
NOSS 3-1 (A) 4.0 19:29:58 10° NW 19:37:16 78° SW 19:39:01 58° SSE
SeaSat 1 4.2 19:52:43 25° NNW 19:52:43 25° NNW 19:54:46 10° NNW
Cosmos 2369 Rocket 4.1 20:00:09 10° NW 20:04:46 26° WSW 20:07:35 18° SW
Lacrosse 5 rocket 4.3 20:00:53 10° WNW 20:01:33 14° WNW 20:01:33 14° WNW
Lacrosse 5 4.4 20:08:24 10° SW 20:09:00 13° SW 20:09:00 13° SW
SL-16 R/B 3.8 20:10:19 10° W 20:15:00 29° NW 20:15:00 29° NW
ATLAS 2AS CENTAUR R/B 3.8 20:09:36 10° WNW 20:16:01 40° N 20:16:01 40° N
Cosmos 2237 Rocket 4.4 20:20:46 10° WNW 20:24:26 18° NNW 20:24:26 18° NNW
USA 215 4.0 20:26:28 48° WNW 20:26:28 48° WNW 20:31:12 10° W
